This is the latest recevied weather packets stored in our database for station/object W4NDF-13. If no packets are shown the sender has not sent any weather packets the latest 10 day(s).
| Time | Temp. | Humidity | Pressure | Rain* | Wind** | Luminosity | Snow |
|---|---|---|---|---|---|---|---|
| 1777644117 | 21.11° C | 92% | 1012.9 hPa | 0 mm | - | 115 W/m² | - |
| 1777643813 | 21.11° C | 92% | 1012.7 hPa | 0 mm | - | 117 W/m² | - |
| 1777643511 | 21.11° C | 92% | 1012.6 hPa | 0 mm | - | 105 W/m² | - |
| 1777643207 | 21.11° C | 92% | 1012.7 hPa | 0 mm | - | 104 W/m² | - |
| 1777642904 | 21.11° C | 92% | 1012.8 hPa | 0 mm | - | 106 W/m² | - |
| 1777642601 | 21.11° C | 92% | 1012.9 hPa | 0 mm | - | 109 W/m² | - |
| 1777642298 | 21.11° C | 92% | 1013 hPa | 0 mm | - | 110 W/m² | - |
| 1777641994 | 21.11° C | 92% | 1012.9 hPa | 0 mm | - | 118 W/m² | - |
| 1777641690 | 21.11° C | 92% | 1012.8 hPa | 0 mm | - | 119 W/m² | - |
| 1777641385 | 21.11° C | 93% | 1013 hPa | 0 mm | - | 105 W/m² | - |
| 1777641081 | 20.56° C | 93% | 1013.1 hPa | 0 mm | - | 107 W/m² | - |
| 1777640777 | 20.56° C | 93% | 1013.1 hPa | 0 mm | - | 86 W/m² | - |
| 1777640474 | 20.56° C | 93% | 1012.9 hPa | 0 mm | - | 73 W/m² | - |
| 1777640171 | 20.56° C | 93% | 1012.4 hPa | 0 mm | - | 72 W/m² | - |
| 1777639868 | 20.56° C | 93% | 1012.6 hPa | 0 mm | - | 71 W/m² | - |
| 1777639565 | 20.56° C | 94% | 1012.2 hPa | 0 mm | - | 69 W/m² | - |
| 1777639262 | 20.56° C | 94% | 1012.2 hPa | 0 mm | - | 65 W/m² | - |
| 1777638958 | 20.56° C | 94% | 1012.1 hPa | 0 mm | - | 58 W/m² | - |
| 1777638653 | 20.56° C | 94% | 1012 hPa | 0 mm | - | 48 W/m² | - |
| 1777638350 | 20.56° C | 94% | 1012.4 hPa | 0 mm | - | 42 W/m² | - |
| 1777638046 | 20.56° C | 94% | 1012.2 hPa | 0 mm | - | 34 W/m² | - |
| 1777637743 | 20.56° C | 94% | 1012.5 hPa | 0 mm | - | 23 W/m² | - |
| 1777637439 | 20.56° C | 94% | 1012.3 hPa | 0 mm | - | 20 W/m² | - |
| 1777637137 | 20.56° C | 94% | 1012.4 hPa | 0 mm | - | 17 W/m² | - |
| 1777636833 | 20.56° C | 94% | 1012.8 hPa | 0 mm | - | 11 W/m² | - |
* Rain latest hour (hover to see other rain measurements)
** Current wind speed in m/s (hover to see current wind gust speed)